Weather History for LEBB - August, 2013

Change the Weather History Date:

Sunday, August 25, 2013

  Actual Average Record
Temperature  
Mean Temperature 68 °F -  
Max Temperature 75 °F 76 °F 100 °F (2001)
Min Temperature 60 °F 58 °F 56 °F (2014)
Cooling Degree Days 2    
Growing Degree Days 18 (Base 50)    
Moisture  
Dew Point 60 °F    
Average Humidity 80    
Maximum Humidity 100    
Minimum Humidity 53    
Precipitation  
Precipitation 0.00 in - - ()
Sea Level Pressure  
Sea Level Pressure 30.03 in    
Wind  
Wind Speed 4 mph ()    
Max Wind Speed 17 mph    
Max Gust Speed 30 mph    
Visibility 5.8 miles    
Events Rain    
Averages and records for this station are not official NWS values.
T = Trace of Precipitation, MM = Missing Value Source: Averaged Metar Reports

Daily Weather History Graph

Daily Weather History Graph

Search for Another Location

Airport or City:

Trip Planner

Search our weather history database for the weather conditions in past years. The results will help you decide how hot, cold, wet, or windy it might be!

Date:

Astronomy

Aug. 25, 2013 Rise Set
Actual Time 7:28 AM CEST 8:58 PM CEST
Civil Twilight 6:58 AM CEST 9:28 PM CEST
Nautical Twilight 6:21 AM CEST 10:04 PM CEST
Astronomical Twilight 5:43 AM CEST 10:42 PM CEST
Moon 11:10 PM CEST (8/25) 12:25 PM CEST (8/25)
Length of Visible Light 14h 30m
Length of Day
13h 30m
Waning Gibbous, 78% of the Moon is Illuminated
Aug 25
Waning Gibbous
Aug 28
Last Quarter
Sep 5
New
Sep 12
First Quarter
Sep 19
Full

Hourly Weather History & Observations

Time (CEST) Temp. Dew Point Humidity Pressure Visibility Wind Dir Wind Speed Gust Speed Precip Events Conditions
5:00 AM 62.6 °F 60.8 °F 94% 30.12 in 6.2 mi Calm Calm - N/A   Mostly Cloudy
5:30 AM 62.6 °F 59.0 °F 88% 30.09 in 6.2 mi Variable 1.2 mph - N/A   Mostly Cloudy
6:00 AM 60.8 °F 59.0 °F 94% 30.09 in 6.2 mi Calm Calm - N/A   Mostly Cloudy
6:24 AM 60.8 °F 59.0 °F 94% 30.09 in 5.0 mi NE 6.9 mph - N/A Rain Rain
6:30 AM 60.8 °F 59.0 °F 94% 30.09 in 4.3 mi NE 4.6 mph - N/A Rain Rain
7:00 AM 60.8 °F 59.0 °F 94% 30.09 in 6.2 mi Variable 1.2 mph - N/A Rain Light Rain
7:30 AM 60.8 °F 59.0 °F 94% 30.09 in 6.2 mi Variable 2.3 mph - N/A   Mostly Cloudy
8:00 AM 60.8 °F 59.0 °F 94% 30.09 in 6.2 mi Variable 1.2 mph - N/A   Scattered Clouds
8:30 AM 60.8 °F 59.0 °F 94% 30.09 in 6.2 mi Variable 1.2 mph - N/A   Scattered Clouds
9:00 AM 62.6 °F 60.8 °F 94% 30.09 in 6.2 mi Variable 2.3 mph - N/A   Scattered Clouds
9:30 AM 64.4 °F 60.8 °F 88% 30.06 in 6.2 mi Variable 2.3 mph - N/A   Scattered Clouds
10:00 AM 68.0 °F 60.8 °F 78% 30.06 in 6.2 mi Variable 1.2 mph - N/A   Scattered Clouds
10:30 AM 68.0 °F 59.0 °F 73% 30.06 in 6.2 mi West 3.5 mph - N/A   Scattered Clouds
11:00 AM 69.8 °F 57.2 °F 64% 30.06 in 6.2 mi NW 8.1 mph - N/A   Scattered Clouds
11:30 AM 71.6 °F 57.2 °F 60% 30.06 in 6.2 mi NW 3.5 mph - N/A   Scattered Clouds
12:00 PM 73.4 °F 57.2 °F 57% 30.04 in 6.2 mi Variable 3.5 mph - N/A   Mostly Cloudy
12:30 PM 73.4 °F 55.4 °F 53% 30.04 in 6.2 mi Variable 2.3 mph - N/A   Scattered Clouds
1:00 PM 75.2 °F 57.2 °F 53% 30.04 in 6.2 mi Variable 3.5 mph - N/A   Scattered Clouds
1:30 PM 75.2 °F 59.0 °F 57% 30.04 in 6.2 mi NNW 9.2 mph - N/A   Scattered Clouds
2:00 PM 75.2 °F 59.0 °F 57% 30.04 in 6.2 mi NNW 10.4 mph - N/A   Scattered Clouds
2:30 PM 75.2 °F 57.2 °F 53% 30.01 in 6.2 mi NNW 9.2 mph - N/A   Scattered Clouds
3:00 PM 73.4 °F 59.0 °F 61% 30.01 in 6.2 mi NNW 8.1 mph - N/A   Partly Cloudy
3:30 PM 75.2 °F 59.0 °F 57% 30.01 in 6.2 mi NNW 13.8 mph - N/A   Partly Cloudy
4:00 PM 73.4 °F 59.0 °F 61% 30.01 in 6.2 mi NNW 9.2 mph - N/A   Partly Cloudy
4:30 PM 71.6 °F 59.0 °F 64% 30.01 in 6.2 mi NNW 11.5 mph - N/A   Mostly Cloudy
5:00 PM 73.4 °F 60.8 °F 65% 30.01 in 6.2 mi NNW 13.8 mph - N/A   Mostly Cloudy
5:30 PM 71.6 °F 60.8 °F 69% 29.98 in 6.2 mi NNW 15.0 mph - N/A   Mostly Cloudy
6:00 PM 69.8 °F 64.4 °F 83% 29.98 in 6.2 mi NNW 17.3 mph - N/A   Light Drizzle
6:30 PM 69.8 °F 62.6 °F 78% 29.98 in 6.2 mi NW 11.5 mph - N/A   Mostly Cloudy
6:44 PM 68.0 °F 64.4 °F 88% 29.98 in 1.1 mi NW 16.1 mph 29.9 mph N/A Rain Light Rain
7:00 PM 66.2 °F 64.4 °F 94% 29.98 in 5.0 mi NNW 9.2 mph - N/A Rain Light Rain
7:30 PM 66.2 °F 64.4 °F 94% 29.98 in 5.0 mi Variable 2.3 mph - N/A Rain Light Rain
8:00 PM 66.2 °F 64.4 °F 94% 29.98 in 4.3 mi WNW 3.5 mph - N/A Rain Light Rain
8:30 PM 66.2 °F 64.4 °F 94% 29.98 in 6.2 mi Variable 2.3 mph - N/A   Mostly Cloudy
9:00 PM 66.2 °F 64.4 °F 94% 29.98 in 3.1 mi Variable 1.2 mph - N/A Rain Light Rain
9:30 PM 64.4 °F 62.6 °F 94% 30.01 in 6.2 mi NNW 3.5 mph - N/A Rain Light Rain
10:00 PM 64.4 °F 62.6 °F 94% 30.01 in 6.2 mi Calm Calm - N/A Rain Light Rain
10:30 PM 64.4 °F 62.6 °F 94% 29.98 in 6.2 mi Variable 2.3 mph - N/A   Mostly Cloudy
11:00 PM 64.4 °F 64.4 °F 100% 30.01 in 6.2 mi Calm Calm - N/A   Mostly Cloudy
11:30 PM 64.4 °F 62.6 °F 94% 30.01 in 6.2 mi Calm Calm - N/A Rain Light Rain